www.pogodaiklimat.ru

Погода и климат >> Архив погоды >> Россия >> Ненецкий АО >> Варандей


ПОГОДА в Варандее

  • Прогноз погоды в Варандее
  • Монитор погоды в Варандее

АРХИВ ПОГОДЫ в Варандее

Время (UTC), дата Ветер
(напр.,м/с)
 
Видим.   Явления Облачность Т
(С)
Тd
(С)
f
(%)
Тe
(С)
Тes
(С)
Комфортность P
(гПа)
Po
(гПа)
Тmin
(С)
Tmax
(С)
R
(мм)
R24
(мм)
S
(см)
18 15.04 СВ 9-12
{12}
20 км позёмок 4/4 300 м
[Sc diur, vesp]
-12.3 -14.0 87 -23 -23 1016.4 1015.5
21 15.04 С 11-14
{15}
10 км позёмок 8/8 300 м
[Cu Sc]
-12.7 -14.4 87 -24 -24 1019.6 1018.7
00 16.04 СВ 8-11
{14}
4000 м позёмок 8/8 300 м
[Sc]
-12.0 -13.0 92 -22 -22 1022.2 1021.3
03 16.04 С 9-12
{14}
10 км позёмок 6/6 300 м
[Cu Sc]
-13.3 -15.0 87 -24 -24 1025.9 1025.0 -14.0 107
06 16.04 С 9-11
{14}
10 км позёмок 6/6 300 м
[Cu med, cong]
-13.0 -15.3 83 -24 -24 1028.9 1028.0
09 16.04 С 6
{12}
10 км {метель} 6/6 300 м
[Cu med, cong]
-11.6 -13.3 87 -20 -19 1031.6 1030.7
12 16.04 С 6 10 км {метель} 6/6 300 м
[Cu med, cong]
-10.4 -12.5 85 -19 -18 1033.3 1032.4
15 16.04 СЗ 3 10 км 3/3 300 м
[Cu med, cong]
-11.3 -12.5 91 -17 -17 1033.7 1032.8 -10.4
18 16.04 З 2 20 км 3/0
[Cs]
-13.9 -14.4 96 -19 -19 1033.0 1032.1
21 16.04 ЮЗ 3 10 км 9/9 300 м
[Sc]
-18.0 -19.0 92 -25 -25 1031.7 1030.8
00 17.04 ЮЗ 5 4000 м дымка 10/0 2000 м
[As op]
-15.8 -16.7 93 -25 -25 1029.2 1028.3
03 17.04 ЮЗ 8-10
{10}
4000 м дымка 10/0 2000 м
[As op]
-12.9 -13.6 94 -23 -23 1025.9 1025.0 -19.7 107
06 17.04 ЮЗ 12-15
{15}
2000 м слаб. снег {метель} 10/0 2000 м
[As op]
-7.7 -7.9 98 -19 -19 1021.7 1020.8
09 17.04 З 11-14
{15}
1000 м слаб. снег {метель} 10/10 270 м
[Frnb Ns]
-4.4 -4.4 100 -15 -15 1018.1 1017.2
12 17.04 З 8-11
{15}
2000 м слаб. снег {метель} 10/10 300 м
[Frnb Ns]
-0.8 -0.8 100 -9 -9 1016.3 1015.4
15 17.04 З 9-13
{13}
4000 м слаб. снег {метель} 10/10 300 м
[Frnb Ns]
-0.3 -0.3 100 -9 -9 1014.2 1013.3 -0.3 2
18 17.04 З 9-12
{13}
4000 м слаб. снег {метель} 10/10 180 м
[Frnb]
-0.5 -0.5 100 -9 -9 1012.8 1011.9
21 17.04 З 7-10
{12}
10 км в посл. час снег {метель} 10/10 150 м
[St]
-0.6 -0.6 100 -8 -8 1011.7 1010.8
00 18.04 З 5
{10}
4000 м дымка {снег} 10/10 150 м
[St]
-0.9 -0.9 100 -8 -8 1011.3 1010.4
03 18.04 СЗ 5 10 км 10/10 300 м
[Sc]
-1.4 -1.4 100 -8 -8 1011.7 1010.8 -1.4 0.4 108
06 18.04 З 5 10 км 9/9 270 м
[Sc]
-1.1 -1.1 100 -8 -7 1012.6 1011.7
09 18.04 З 8-10
{10}
10 км 10/10 240 м
[St]
-0.3 -0.3 100 -8 -8 1013.7 1012.8
12 18.04 З 9-12
{15}
4000 м слаб. снег 10/10 210 м
[Frnb Ns]
-0.4 -0.4 100 -9 -9 1013.4 1012.5
15 18.04 З 10-13
{15}
4000 м слаб. снег {метель} 10/10 240 м
[Frnb Ns]
-0.5 -0.5 100 -9 -9 1012.4 1011.5 -0.2 0.0
18 18.04 З 7
{13}
10 км {снег, метель} 9/9 330 м
[Sc]
-0.8 -0.8 100 -8 -8 1012.0 1011.1
21 18.04 СЗ 6
{10}
10 км 9/9 360 м
[Sc]
-1.3 -1.3 100 -9 -9 1012.5 1011.6
00 19.04 С 3 10 км 9/9 300 м
[Sc]
-2.8 -3.9 92 -8 -8 1014.0 1013.1
03 19.04 С 2 20 км 9/9 450 м
[Sc]
-2.7 -4.3 89 -7 -7 1015.1 1014.2 -3.0 0.0 109
06 19.04 З 2 20 км 10/10 300 м
[Sc]
-1.9 -4.0 86 -6 -6 1016.4 1015.5
09 19.04 З 3 20 км 9/5 300 м
[Sc Ac trans]
-1.4 -3.0 89 -6 -5 1017.4 1016.3
12 19.04 З 2 10 км слаб. ливневой снег 10/10 300 м
[Cb cap]
-1.0 -1.7 95 -5 -5 1017.6 1016.7
15 19.04 штиль 0 50 км {ливн. осадки} ?/? -1.5 -1.5 100 -3 -3 1017.2 1016.3 -1.0 0.0
18 19.04 З 3 2000 м дымка {ливн. осадки, туман} 10/10 300 м
[St]
-1.2 -1.2 100 -6 -6 1017.3 1016.4
21 19.04 З 5 4000 м дымка 10/10 200 м
[St]
-0.5 -0.5 100 -7 -7 1017.0 1016.1
00 20.04 З 7
{10}
2000 м дымка 10/10 200 м
[St]
-0.3 -0.3 100 -8 -8 1016.2 1015.3
03 20.04 З 7
{11}
4000 м дымка 10/10 300 м
[Sc]
-0.1 -0.1 100 -8 -8 1016.0 1015.1 -1.5 0.0 109
06 20.04 З 6 4000 м дымка 10/10 210 м
[St]
0.0 0.0 100 -7 -7 1016.0 1015.1
09 20.04 З 6 4000 м слаб. снег 10/10 210 м
[Frnb Ns]
+0.2 +0.2 100 -7 -7 1015.9 1015.0
12 20.04 З 8-12
{13}
4000 м дымка {снег} 10/10 180 м
[St]
-0.5 -0.5 100 -8 -8 1015.0 1014.1
15 20.04 ЮЗ 9-12
{12}
20 км 9/9 300 м
[Sc]
0.0 -0.3 98 -8 -8 1012.4 1011.5 +0.2 0.0
18 20.04 З 11-15
{15}
4000 м слаб. снег {метель} 10/10 200 м
[Frnb Ns]
-0.2 -0.2 100 -9 -9 1007.8 1007.0
21 20.04 З 8-10
{15}
4000 м слаб. снег {метель} 10/10 180 м
[Frnb Ns]
+0.1 +0.1 100 -8 -8 1005.9 1005.1
00 21.04 З 8-10
{13}
10 км {снег, метель} 10/10 210 м
[Frnb Ns]
+0.1 +0.1 100 -8 -8 1005.4 1004.6
03 21.04 З 8-10
{11}
4000 м дымка 10/10 180 м
[St]
+0.1 +0.1 100 -8 -8 1005.9 1005.1 -0.3 1 109
06 21.04 З 7
{11}
4000 м слаб. ливневой снег 10/10 300 м
[Cb cap]
+0.2 +0.2 100 -7 -7 1006.9 1006.1
09 21.04 З 1
{10}
10 км {ливн. осадки} 10/10 300 м
[Cb cap]
+0.3 +0.3 100 -2 -2 1007.9 1007.1
12 21.04 З 7-10
{10}
10 км {ливн. осадки} 10/10 300 м
[Cb cap]
0.0 0.0 100 -7 -7 1008.0 1007.2
15 21.04 ЮЗ 8-10
{10}
4000 м дымка 10/10 120 м
[St]
-0.1 -0.1 100 -8 -8 1006.6 1005.8 +0.3 0.0
18 21.04 Ю 8-10
{12}
10 км слаб. морось 10/10 210 м
[St]
+0.3 +0.3 100 -7 -7 1003.4 1002.6
21 21.04 З 12-15
{17}
10 км слаб. морось 10/10 180 м
[Frnb]
+0.5 +0.5 100 -8 -8 1000.5 999.7
00 22.04 З 9-11
{17}
10 км слаб. морось 10/10 200 м
[St]
+0.2 +0.2 100 -8 -8 1001.0 1000.2
03 22.04 ЮЗ 8
{12}
10 км слаб. дождь {морось} 10/10 180 м
[Frnb Ns]
+0.4 +0.4 100 -7 -7 999.7 998.9 -0.1 2 106
06 22.04 ЮЗ 9-12
{14}
1000 м в посл. час снег {дождь} 10/10 150 м
[St]
+0.2 +0.2 100 -8 -8 998.7 997.9
09 22.04 ЮЗ 11-13
{15}
500 м туман ?/? +0.1 +0.1 100 -9 -9 998.2 997.4
12 22.04 ЮЗ 11-13
{15}
10 км {туман} 10/10 240 м
[St]
+0.5 +0.5 100 -8 -8 997.2 996.4
15 22.04 З 11-14
{15}
2000 м снег {морось} 10/10 200 м
[Frnb Ns]
-0.5 -0.5 100 -9 -9 998.1 997.3 +0.6 0.5

 

Местоположение метеостанции Варандей (Ненецкий АО, Россия): широта 68.82 долгота 58.02 высота над уровнем моря 7 м.

В архиве по умолчанию представлена погода в Варандее за последнюю неделю. Архивные данные за месяц целиком и за предыдущие месяцы, начиная с января 2011 года, Вы можете получить, выбрав интересующий диапазон дат из раскрывающегося списка и нажав кнопку "Ввод!".


*Определитесь, кто Вы:
робот инопланетянин человек

Внимание! Время в таблицах - всемирное. Для получения местного времени необходимо прибавить поправку, которая равна 3 ч.

Смотрите также архив погоды в соседних городах и на ближайших метеорологических станциях:

Погода на Мысе Константиновском (Ненецкий АО, Россия) (106 км)
Погода на Мысе Белый Нос (Ненецкий АО, Россия) (122 км)
Погода в Хорей-Вере (Ненецкий АО, Россия) (155 км)
Погода в Ходоварихе (Ненецкий АО, Россия) (172 км)
Погода в Амдерме (Ненецкий АО, Россия) (179 км)
Погода в Имени Федорова (Ненецкий АО, Россия) (186 км)
Погода в Харуте (Ненецкий АО, Россия) (228 км)
Погода в Нарьян-Маре (Ненецкий АО, Россия) (245 км)
Погода в Сенгейском Шаре (Ненецкий АО, Россия) (277 км)
Погода в Усть-Каре (Ненецкий АО, Россия) (279 км)

Пояснения к столбцам:

Ветер - указаны скорость ветра в м/с - средняя за 10 мин, порывы в срок и между сроками (в фигурных скобках) и направление, откуда дует ветер: С - северный, СВ - северо-восточный, В - восточный, ЮВ - юго-восточный, Ю - южный, ЮЗ - юго-западный, З - западный, СЗ - северо-западный.
Видимость - горизонтальная дальность видимости в метрах или километрах. При видимости от 1 до 10 км при отсутствии осадков обычно наблюдается дымка, при ухудшении видимости до 1 км и менее - туман. В сухую погоду видимость может ухудшаться дымом, пылью или мглою.
Явления - указаны атмосферные явления, наблюдавшиеся в срок или в последний час перед сроком; фигурными скобками обозначены явления, наблюдавшиеся между сроками (за 1-3 часа до срока); квадратными скобками обозначены град или гололедные отложения с указанием их диаметра в мм.
Облачность - указаны через наклонную черту общая и нижняя облачность в баллах и высота нижней границы облаков в метрах; квадратными скобками обозначены формы облаков: Ci - перистые, Cs - перисто-слоистые, Cc - перисто-кучевые, Ac - высококучевые, As - высокослоистые, Sc - слоисто-кучевые, Ns - слоисто-дождевые, Cu - кучевые, Cb - кучево-дождевые. Подробнее классификацию облаков см. в Атласе облаков (PDF).
T - Температура воздуха - температура, измеренная на высоте 2 м над землей.
Td - Температура точки росы - температура, при понижении до которой содержащийся в воздухе водяной пар достигнет насыщения.
f - Относительная влажность воздуха - влажноcть воздуха, измеренная на высоте 2 м над землей.
Te - Эффективная температура - температура, которую ощущает одетый по сезону человек в тени. Характеристика душности погоды. При расчете учитывается влияние влажности воздуха и скорости ветра на теплоощущения человека.
Tes - Эффективная температура на солнце - температура, которую ощущает человек, с поправкой на солнечный нагрев. Характеристика знойности погоды. Зависит от высоты солнца над горизонтом, облачности и скорости ветра. Ночью, в пасмурную погоду, а также при ветре 12 м/с и более поправка равна нулю.
P - Атмосферное давление - приведенное к уровню моря атмосферное давление.
Po - Атмосферное давление - измеренное на уровне метеостанции атмосферное давление.
Tmin - Минимальная температура - минимум температуры воздуха на высоте 2 м над землей.
Tmax - Максимальная температура - максимум температуры воздуха на высоте 2 м над землей.
R - Количество осадков - Количество выпавших осадков за период времени, мм. При наведении курсора мыши на число - период времени, за который выпало указанное количество осадков.
R24 - Количество осадков - Количество выпавших осадков за 24 часа, мм.
S - Снежный покров - Высота снежного покрова, см. При наведении курсора мыши на число - состояние снежного покрова и степень покрытия местности в баллах.